Hourly Weather Munyakovo

Today, 26 September, Sunday

Time Temperature Precipitation Wind Pressure Humidity
00:00 +10°C° 0.1 mm 4 mps 743 mmHg 87%
01:00 +8°C° 0.8 mm 4 mps 743 mmHg 89%
02:00 +8°C° 0.8 mm 4 mps 742 mmHg 92%
03:00 +8°C° 0.8 mm 4 mps 742 mmHg 95%
04:00 +8°C° 0.3 mm 4 mps 742 mmHg 95%
05:00 +8°C° 0.3 mm 4 mps 741 mmHg 95%
06:00 +8°C° 0.3 mm 4 mps 741 mmHg 94%
07:00 +10°C° 0.1 mm 4 mps 741 mmHg 90%
08:00 +9°C° 0.1 mm 5 mps 741 mmHg 86%
09:00 +10°C° 0.1 mm 5 mps 741 mmHg 82%
10:00 +9°C° 0.5 mm 6 mps 741 mmHg 84%
11:00 +9°C° 0.5 mm 6 mps 741 mmHg 85%
12:00 +8°C° 0.5 mm 6 mps 742 mmHg 87%
13:00 +8°C° 0.7 mm 6 mps 742 mmHg 89%
14:00 +8°C° 0.7 mm 6 mps 742 mmHg 91%
15:00 +8°C° 0.7 mm 6 mps 742 mmHg 92%
16:00 +8°C° 0.4 mm 6 mps 743 mmHg 93%
17:00 +8°C° 0.4 mm 6 mps 743 mmHg 93%
18:00 +8°C° 0.4 mm 6 mps 743 mmHg 94%
19:00 +8°C° 0.3 mm 6 mps 744 mmHg 94%
20:00 +8°C° 0.3 mm 6 mps 745 mmHg 94%
21:00 +8°C° 0.3 mm 6 mps 745 mmHg 94%
22:00 +8°C° 0.2 mm 6 mps 746 mmHg 93%
23:00 +8°C° 0.2 mm 6 mps 747 mmHg 93%

Tomorrow, 27 September, Monday

Time Temperature Precipitation Wind Pressure Humidity
00:00 +8°C° 0.2 mm 6 mps 747 mmHg 93%
01:00 +8°C° 0.1 mm 6 mps 748 mmHg 93%
02:00 +8°C° 0.1 mm 6 mps 748 mmHg 93%
03:00 +8°C° 0.1 mm 6 mps 749 mmHg 93%
04:00 +8°C° 0 mm 6 mps 750 mmHg 92%
05:00 +8°C° 0 mm 6 mps 750 mmHg 91%
06:00 +8°C° 0 mm 6 mps 751 mmHg 90%
07:00 +8°C° 0 mm 6 mps 751 mmHg 88%
08:00 +8°C° 0 mm 6 mps 752 mmHg 85%
09:00 +8°C° 0 mm 6 mps 752 mmHg 83%
10:00 +9°C° 0 mm 6 mps 752 mmHg 81%
11:00 +9°C° 0 mm 6 mps 753 mmHg 78%
12:00 +10°C° 0 mm 6 mps 753 mmHg 76%
13:00 +10°C° 0.1 mm 6 mps 753 mmHg 77%
14:00 +10°C° 0.1 mm 5 mps 754 mmHg 78%
15:00 +10°C° 0.1 mm 5 mps 754 mmHg 79%
16:00 +9°C° 0.1 mm 5 mps 754 mmHg 81%
17:00 +9°C° 0.1 mm 5 mps 755 mmHg 83%
18:00 +8°C° 0.1 mm 5 mps 755 mmHg 86%
19:00 +8°C° 0 mm 5 mps 755 mmHg 87%
20:00 +8°C° 0 mm 5 mps 756 mmHg 88%
21:00 +7°C° 0 mm 5 mps 756 mmHg 89%
22:00 +7°C° 0 mm 5 mps 756 mmHg 89%
23:00 +7°C° 0 mm 5 mps 756 mmHg 89%

Day after tomorrow, 28 September, Tuesday

Time Temperature Precipitation Wind Pressure Humidity
00:00 +7°C° 0 mm 5 mps 757 mmHg 89%
01:00 +7°C° 0 mm 4 mps 757 mmHg 88%
02:00 +6°C° 0 mm 4 mps 757 mmHg 87%
03:00 +6°C° 0 mm 4 mps 758 mmHg 86%
04:00 +6°C° 0 mm 4 mps 758 mmHg 85%
05:00 +5°C° 0 mm 5 mps 759 mmHg 84%
06:00 +5°C° 0 mm 5 mps 759 mmHg 84%
07:00 +5°C° 0 mm 5 mps 759 mmHg 82%
08:00 +5°C° 0 mm 5 mps 760 mmHg 80%
09:00 +5°C° 0 mm 5 mps 760 mmHg 77%
10:00 +6°C° 0 mm 5 mps 760 mmHg 74%
11:00 +6°C° 0 mm 5 mps 761 mmHg 72%
12:00 +6°C° 0 mm 5 mps 761 mmHg 69%
13:00 +7°C° 0 mm 5 mps 761 mmHg 66%
14:00 +7°C° 0 mm 5 mps 762 mmHg 63%
15:00 +7°C° 0 mm 4 mps 762 mmHg 60%
16:00 +8°C° 0 mm 3 mps 762 mmHg 63%
17:00 +7°C° 0 mm 3 mps 762 mmHg 65%
18:00 +7°C° 0 mm 2 mps 763 mmHg 67%
19:00 +6°C° 0 mm 2 mps 763 mmHg 70%
20:00 +5°C° 0 mm 2 mps 763 mmHg 73%
21:00 +4°C° 0 mm 2 mps 764 mmHg 76%
22:00 +4°C° 0 mm 2 mps 764 mmHg 76%
23:00 +3°C° 0 mm 2 mps 764 mmHg 76%

29 September, Wednesday

Time Temperature Precipitation Wind Pressure Humidity
00:00 +3°C° 0 mm 2 mps 764 mmHg 77%
01:00 +3°C° 0 mm 2 mps 764 mmHg 78%
02:00 +2°C° 0 mm 2 mps 765 mmHg 79%
03:00 +2°C° 0 mm 2 mps 765 mmHg 80%
04:00 +2°C° 0 mm 2 mps 765 mmHg 81%
05:00 +2°C° 0 mm 2 mps 765 mmHg 82%
06:00 +2°C° 0 mm 2 mps 765 mmHg 84%
07:00 +3°C° 0 mm 2 mps 765 mmHg 78%
08:00 +4°C° 0 mm 3 mps 765 mmHg 72%
09:00 +5°C° 0 mm 3 mps 765 mmHg 67%
10:00 +7°C° 0 mm 3 mps 765 mmHg 62%
11:00 +8°C° 0 mm 3 mps 765 mmHg 58%
12:00 +10°C° 0 mm 3 mps 765 mmHg 54%
13:00 +10°C° 0 mm 3 mps 765 mmHg 54%
14:00 +10°C° 0 mm 3 mps 765 mmHg 53%
15:00 +11°C° 0 mm 3 mps 765 mmHg 53%
16:00 +10°C° 0 mm 3 mps 765 mmHg 60%
17:00 +9°C° 0 mm 3 mps 765 mmHg 66%
18:00 +8°C° 0 mm 2 mps 765 mmHg 73%
19:00 +7°C° 0 mm 2 mps 765 mmHg 76%
20:00 +7°C° 0 mm 2 mps 765 mmHg 80%
21:00 +6°C° 0 mm 2 mps 765 mmHg 83%
22:00 +6°C° 0 mm 2 mps 765 mmHg 83%
23:00 +6°C° 0 mm 2 mps 765 mmHg 83%

30 September, Thursday

Time Temperature Precipitation Wind Pressure Humidity
00:00 +7°C° 0 mm 1 mps 765 mmHg 83%
01:00 +6°C° 0 mm 2 mps 765 mmHg 82%
02:00 +7°C° 0 mm 2 mps 765 mmHg 81%
03:00 +7°C° 0 mm 2 mps 765 mmHg 80%
04:00 +7°C° 0 mm 2 mps 765 mmHg 80%
05:00 +7°C° 0 mm 2 mps 765 mmHg 80%
06:00 +7°C° 0 mm 2 mps 765 mmHg 81%
07:00 +8°C° 0 mm 2 mps 765 mmHg 79%
08:00 +8°C° 0 mm 2 mps 765 mmHg 78%
09:00 +9°C° 0 mm 3 mps 765 mmHg 76%
10:00 +10°C° 0 mm 3 mps 765 mmHg 73%
11:00 +11°C° 0 mm 3 mps 765 mmHg 69%
12:00 +13°C° 0 mm 2 mps 765 mmHg 66%
13:00 +13°C° 0 mm 2 mps 765 mmHg 66%
14:00 +13°C° 0 mm 2 mps 765 mmHg 66%
15:00 +13°C° 0 mm 2 mps 765 mmHg 67%
16:00 +12°C° 0 mm 2 mps 764 mmHg 70%
17:00 +12°C° 0 mm 2 mps 764 mmHg 73%
18:00 +10°C° 0 mm 2 mps 764 mmHg 76%
19:00 +10°C° 0 mm 2 mps 764 mmHg 79%
20:00 +9°C° 0 mm 2 mps 764 mmHg 82%
21:00 +8°C° 0 mm 2 mps 764 mmHg 85%
22:00 +8°C° 0 mm 2 mps 764 mmHg 86%
23:00 +8°C° 0 mm 2 mps 764 mmHg 87%

1 October, Friday

Time Temperature Precipitation Wind Pressure Humidity
00:00 +7°C° 0 mm 2 mps 764 mmHg 89%
01:00 +7°C° 0 mm 2 mps 764 mmHg 89%
02:00 +7°C° 0 mm 2 mps 764 mmHg 89%
03:00 +7°C° 0 mm 2 mps 764 mmHg 90%
04:00 +7°C° 0 mm 2 mps 764 mmHg 90%
05:00 +6°C° 0 mm 2 mps 764 mmHg 90%
06:00 +6°C° 0 mm 2 mps 764 mmHg 90%
07:00 +8°C° 0 mm 1 mps 764 mmHg 85%
08:00 +10°C° 0 mm 1 mps 764 mmHg 81%
09:00 +11°C° 0 mm 1 mps 764 mmHg 76%
10:00 +12°C° 0 mm 1 mps 764 mmHg 71%
11:00 +13°C° 0 mm 2 mps 764 mmHg 66%
12:00 +15°C° 0 mm 2 mps 763 mmHg 61%
13:00 +15°C° 0 mm 2 mps 763 mmHg 60%
14:00 +16°C° 0 mm 2 mps 763 mmHg 59%
15:00 +16°C° 0 mm 2 mps 763 mmHg 58%
16:00 +15°C° 0 mm 2 mps 762 mmHg 63%
17:00 +14°C° 0 mm 2 mps 762 mmHg 68%
18:00 +13°C° 0 mm 2 mps 762 mmHg 74%
19:00 +12°C° 0 mm 2 mps 762 mmHg 76%
20:00 +12°C° 0 mm 2 mps 762 mmHg 77%
21:00 +11°C° 0 mm 1 mps 762 mmHg 79%
22:00 +11°C° 0 mm 1 mps 762 mmHg 79%
23:00 +11°C° 0 mm 1 mps 762 mmHg 79%
Show more

We Need Your Consent

Meteoprog and our Service Providers may store and access personal data such as cookies, device identifiers or other similar technologies on your device and process such data to personalise content and ads, as well as provide social media features and to analyse the traffic.

  • Store and/or access information on your device

    Cookies, device identifiers or other information can be stored or accessed on your device for the purposes indicated above.

  • Personalised ads and content, ad and content measurement, audience insights, and products development

    Ads and content can be personalised based on a profile. More data can be added to better personalise ads and content. Ad and content performance can be measured. Insights about the audience who saw the ads and content can be derived. Such data can be used to develop or improve user’s experience, systems and software.

By clicking ‘I Agree’ you will allow the use of indicated cookies, device identifiers, web beacons or other similar technologies. Your settings can be changed in the browser on your device.

For certain purposes, legitimate interests may be relied on, rather than consent. You can read more about this in our Privacy and Cookie Policy.